N1DNE Weather Reports


Display with metric or nautical units.
time (UTC)temp
F
wind
direction
speed
MPH
gust
MPH
rain 1hr
in
rain 24hr
in
rain mn
in
humidity
%
barometer
mb
20260502191534 55 52 1.0 3.0 0.00 0.05 0.05 68 1008.8
20260502191011 55 339 2.0 5.0 0.00 0.05 0.05 67 1009.0
20260502185532 55 208 1.0 4.0 0.00 0.05 0.05 71 1009.1
20260502184531 54 50 1.0 3.0 0.00 0.05 0.05 70 1009.1
20260502183530 53 338 1.0 3.0 0.00 0.05 0.05 73 1009.3
20260502182012 52 26 1.0 4.0 0.01 0.05 0.05 76 1009.3
20260502180531 52 72 1.0 4.0 0.01 0.05 0.05 80 1009.2
20260502163527 51 355 2.0 4.0 0.00 0.04 0.04 87 1009.2
20260502162527 52 316 1.0 5.0 0.00 0.04 0.04 85 1009.3
20260502162008 53 306 2.0 4.0 0.00 0.04 0.04 82 1009.1
20260502160520 55 311 2.0 4.0 0.00 0.04 0.04 77 1009.1
20260502151520 54 167 2.0 6.0 0.00 0.04 0.04 78 1009.4
20260502150521 54 166 2.0 5.0 0.00 0.04 0.04 79 1009.4
20260502130508 50 169 0.0 2.0 0.00 0.04 0.04 91 1009.7
20260502123508 49 169 1.0 4.0 0.01 0.04 0.04 95 1009.9
20260502122508 49 169 0.0 1.0 0.01 0.04 0.04 95 1009.9
20260502121508 48 169 0.0 0.0 0.01 0.04 0.04 94 1010.0
20260502120508 48 169 0.0 1.0 0.01 0.04 0.04 94 1010.3
20260502115507 48 169 0.0 2.0 0.01 0.04 0.04 94 1010.2
20260502114508 48 169 0.0 2.0 0.01 0.04 0.04 94 1010.2
20260502113502 48 170 0.0 1.0 0.01 0.03 0.03 94 1010.0
20260502112504 48 170 0.0 2.0 0.01 0.03 0.03 94 1009.8
20260502111502 48 169 0.0 2.0 0.01 0.03 0.03 94 1010.0
20260502110500 48 169 0.0 1.0 0.01 0.03 0.03 94 1010.1
20260502105502 48 169 0.0 1.0 0.01 0.03 0.03 94 1010.3
20260502104501 48 169 0.0 2.0 0.02 0.03 0.03 94 1010.2
20260502103500 48 170 0.0 4.0 0.01 0.02 0.02 94 1010.4
20260502102944 48 169 0.0 1.0 0.01 0.02 0.02 94 1010.0
20260502101500 48 169 0.0 1.0 0.01 0.02 0.02 94 1009.6
20260502100501 48 169 0.0 2.0 0.01 0.02 0.02 93 1009.4
20260502091457 48 170 0.0 1.0 0.00 0.01 0.01 93 1009.5
20260502090457 48 170 0.0 1.0 0.00 0.01 0.01 93 1009.5
20260502071454 49 170 0.0 1.0 0.00 0.00 0.00 89 1009.2
20260502070453 49 169 0.0 1.0 0.00 0.00 0.00 87 1009.0
20260502065453 50 170 0.0 1.0 0.00 0.00 0.00 86 1009.5
20260502064927 50 169 0.0 1.0 0.00 0.00 0.00 85 1009.3
20260502063452 50 170 0.0 0.0 0.00 0.00 0.00 83 1009.3
20260502062931 50 170 0.0 2.0 0.00 0.00 0.00 82 1009.5
20260502061447 50 170 0.0 2.0 0.00 0.00 0.00 81 1009.2
20260502060447 50 170 0.0 2.0 0.00 0.00 0.00 81 1009.5
20260502055445 50 170 0.0 0.0 0.00 0.00 0.00 80 1009.6
20260502054444 51 170 0.0 1.0 0.00 0.00 0.00 80 1009.7
20260502053442 51 169 0.0 0.0 0.00 0.00 0.00 80 1009.5
20260502052921 51 170 0.0 0.0 0.00 0.00 0.00 79 1009.4
20260502051444 51 170 0.0 1.0 0.00 0.00 0.00 79 1009.6
20260502050444 51 170 0.0 0.0 0.00 0.00 0.00 78 1009.7
20260502045443 51 169 0.0 0.0 0.00 0.00 0.00 78 1009.6
20260502044438 51 169 0.0 2.0 0.00 0.00 0.00 77 1009.7
20260502043436 51 170 0.0 0.0 0.00 0.00 0.00 77 1009.6
20260502042435 51 170 0.0 0.0 0.00 0.00 0.00 77 1009.7
20260502041435 52 170 0.0 0.0 0.00 0.00 0.00 77 1009.6
20260502040435 52 170 0.0 0.0 0.00 0.00 0.00 76 1009.5
20260502035433 52 170 0.0 0.0 0.00 0.00 0.00 74 1009.6
20260502034433 52 170 0.0 1.0 0.00 0.00 0.00 74 1009.6
20260502033432 52 169 0.0 1.0 0.00 0.00 0.00 74 1009.6
20260502032434 52 169 0.0 0.0 0.00 0.00 0.00 75 1009.7
20260502031433 53 170 0.0 1.0 0.00 0.00 0.00 73 1009.8
20260502030433 53 170 0.0 1.0 0.00 0.00 0.00 72 1009.8
20260502025434 53 170 0.0 2.0 0.00 0.00 0.00 71 1009.8
20260502024434 53 169 1.0 2.0 0.00 0.00 0.00 70 1009.8
20260502023912 53 170 1.0 2.0 0.00 0.00 0.00 68 1009.8
20260502022432 54 170 0.0 2.0 0.00 0.00 0.00 68 1009.8
20260502021434 55 170 0.0 2.0 0.00 0.00 0.00 66 1009.7
20260502020428 55 170 1.0 2.0 0.00 0.00 0.00 65 1009.8
20260502015910 56 170 0.0 1.0 0.00 0.00 0.00 64 1009.8
20260502014427 56 170 0.0 4.0 0.00 0.00 0.00 62 1009.6
20260502013919 56 170 1.0 2.0 0.00 0.00 0.00 60 1009.5
20260502012910 57 170 1.0 4.0 0.00 0.00 0.00 58 1009.4
20260502011426 57 169 1.0 4.0 0.00 0.00 0.00 57 1009.4
20260502010429 57 266 0.0 2.0 0.00 0.00 0.00 56 1009.2
20260502005426 57 266 0.0 2.0 0.00 0.00 0.00 55 1009.1
20260502004424 57 266 0.0 2.0 0.00 0.00 0.00 52 1008.9
20260502003426 58 266 0.0 2.0 0.00 0.00 0.00 52 1008.8
20260502002424 58 266 1.0 4.0 0.00 0.00 0.00 52 1008.6
20260502001427 58 217 0.0 3.0 0.00 0.00 0.00 53 1008.5
20260502000424 58 227 0.0 2.0 0.00 0.00 0.00 55 1008.4
20260501235425 59 227 1.0 2.0 0.00 0.00 0.00 52 1008.3
20260501234426 59 227 1.0 2.0 0.00 0.00 0.00 49 1008.2
20260501233424 59 227 0.0 1.0 0.00 0.00 0.00 50 1008.0
20260501232426 60 227 0.0 1.0 0.00 0.00 0.00 49 1007.9
20260501231420 60 227 0.0 1.0 0.00 0.00 0.00 51 1007.8
20260501230418 61 227 0.0 2.0 0.00 0.00 0.00 50 1007.7
20260501225905 61 227 0.0 2.0 0.00 0.00 0.00 43 1007.6
20260501224420 61 227 2.0 7.0 0.00 0.00 0.00 44 1007.7
20260501223419 61 227 1.0 5.0 0.00 0.00 0.00 43 1007.6
20260501222418 61 225 1.0 3.0 0.00 0.00 0.00 45 1007.5
20260501221419 61 231 0.0 1.0 0.00 0.00 0.00 45 1007.5
20260501220421 61 231 1.0 5.0 0.00 0.00 0.00 42 1007.6
20260501215419 62 250 1.0 4.0 0.00 0.00 0.00 42 1007.5
20260501214414 62 211 1.0 5.0 0.00 0.00 0.00 41 1007.6
20260501213415 62 191 1.0 5.0 0.00 0.00 0.00 44 1007.7
20260501212413 61 229 1.0 5.0 0.00 0.00 0.00 43 1007.7
20260501211413 61 275 0.0 2.0 0.00 0.00 0.00 43 1007.8
20260501210412 62 275 1.0 2.0 0.00 0.00 0.00 44 1007.7
20260501205413 62 275 2.0 8.0 0.00 0.00 0.00 43 1007.7
20260501204414 62 330 1.0 5.0 0.00 0.00 0.00 40 1007.6
20260501203412 62 237 1.0 5.0 0.00 0.00 0.00 46 1007.6
20260501202413 62 261 2.0 8.0 0.00 0.00 0.00 43 1007.7
20260501201408 62 261 3.0 10.0 0.00 0.00 0.00 41 1007.6
20260501200406 62 238 2.0 7.0 0.00 0.00 0.00 44 1007.5
20260501195404 62 262 4.0 10.0 0.00 0.00 0.00 42 1007.7
20260501194404 62 212 3.0 7.0 0.00 0.00 0.00 42 1007.7
20260501193406 61 226 1.0 9.0 0.00 0.00 0.00 45 1007.8
20260501192404 61 78 2.0 4.0 0.00 0.00 0.00 43 1007.8